This is the latest recevied weather packets stored in our database for station/object CE7LGA-10. If no packets are shown the sender has not sent any weather packets the latest 10 day(s).
| Time | Temp. | Humidity | Pressure | Rain* | Wind** | Luminosity | Snow |
|---|---|---|---|---|---|---|---|
| 1787758704 | 13.89° C | 71% | 987.6 hPa | - | - | - | - |
| 1787757803 | 13.89° C | 72% | 987.3 hPa | - | - | - | - |
| 1787756903 | 13.33° C | 70% | 987.5 hPa | - | - | - | - |
| 1787756003 | 12.78° C | 72% | 987.2 hPa | - | - | - | - |
| 1787755103 | 13.33° C | 71% | 987.5 hPa | - | - | - | - |
| 1787754203 | 13.89° C | 70% | 987.6 hPa | - | - | - | - |
| 1787753303 | 13.89° C | 70% | 987.7 hPa | - | - | - | - |
| 1787752403 | 13.89° C | 70% | 987.9 hPa | - | - | - | - |
| 1787751503 | 13.89° C | 71% | 988 hPa | - | - | - | - |
| 1787750603 | 13.33° C | 71% | 988 hPa | - | - | - | - |
| 1787749703 | 13.33° C | 72% | 987.8 hPa | - | - | - | - |
| 1787748803 | 13.33° C | 73% | 987.8 hPa | - | - | - | - |
| 1787747903 | 13.33° C | 74% | 987.5 hPa | - | - | - | - |
| 1787747002 | 13.33° C | 73% | 987.4 hPa | - | - | - | - |
| 1787746102 | 13.33° C | 71% | 987.4 hPa | - | - | - | - |
| 1787745202 | 13.33° C | 71% | 987.4 hPa | - | - | - | - |
| 1787744302 | 13.33° C | 72% | 987.5 hPa | - | - | - | - |
| 1787743402 | 13.33° C | 75% | 987.5 hPa | - | - | - | - |
| 1787742502 | 12.22° C | 70% | 987.2 hPa | - | - | - | - |
| 1787741601 | 12.22° C | 70% | 987.1 hPa | - | - | - | - |
| 1787740704 | 12.22° C | 70% | 987.1 hPa | - | - | - | - |
| 1787739804 | 12.22° C | 70% | 986.8 hPa | - | - | - | - |
| 1787738904 | 12.22° C | 71% | 986.6 hPa | - | - | - | - |
| 1787738004 | 12.22° C | 71% | 986.8 hPa | - | - | - | - |
| 1787737104 | 12.22° C | 71% | 986.9 hPa | - | - | - | - |
* Rain since midnight (hover to see other rain measurements)
** Current wind speed in m/s (hover to see current wind gust speed)